EW9662 Weather Reports


Display with metric or nautical units.
time (UTC)temp
F
wind
direction
speed
MPH
gust
MPH
rain 1hr
in
rain 24hr
in
rain mn
in
humidity
%
barometer
mb
20260507000507 59 84 2.0 8.0 0.00 0.24 0.24 92 1005.9
20260507000022 59 94 1.0 8.0 0.00 0.24 0.24 92 1005.9
20260506235504 59 119 0.0 7.0 0.00 0.24 0.24 92 1006.0
20260506235006 59 94 1.0 7.0 0.01 0.24 0.24 92 1006.0
20260506234520 59 87 2.0 8.0 0.02 0.24 0.24 92 1006.0
20260506234003 59 118 2.0 8.0 0.03 0.24 0.24 92 1005.9
20260506233507 59 94 1.0 8.0 0.04 0.24 0.24 92 1005.8
20260506233016 59 96 2.0 6.0 0.04 0.24 0.24 92 1005.9
20260506232508 59 90 2.0 7.0 0.04 0.24 0.24 92 1005.9
20260506232003 59 104 2.0 7.0 0.05 0.24 0.24 92 1005.8
20260506231514 59 94 2.0 8.0 0.06 0.24 0.24 92 1005.8
20260506231007 59 96 3.0 8.0 0.06 0.24 0.24 93 1005.9
20260506230504 59 119 1.0 6.0 0.07 0.24 0.24 93 1005.8
20260506230010 59 96 0.0 6.0 0.07 0.24 0.24 93 1005.8
20260506225508 59 115 2.0 6.0 0.07 0.24 0.24 92 1005.9
20260506225011 59 83 2.0 6.0 0.07 0.23 0.23 92 1005.9
20260506224508 59 102 1.0 8.0 0.07 0.22 0.22 92 1006.0
20260506224003 59 104 1.0 8.0 0.06 0.21 0.21 92 1006.0
20260506223506 59 94 3.0 7.0 0.06 0.20 0.20 92 1006.1
20260506223020 59 108 1.0 7.0 0.07 0.20 0.20 92 1006.1
20260506222505 59 64 2.0 7.0 0.08 0.20 0.20 92 1006.1
20260506222010 59 96 3.0 7.0 0.07 0.19 0.19 92 1006.0
20260506221521 59 35 1.0 8.0 0.06 0.18 0.18 92 1006.1
20260506221003 59 121 1.0 8.0 0.06 0.18 0.18 92 1006.1
20260506220503 59 96 2.0 8.0 0.05 0.17 0.17 92 1006.2
20260506220017 59 103 1.0 6.0 0.05 0.17 0.17 91 1006.3
20260506215506 59 57 2.0 8.0 0.05 0.17 0.17 91 1006.3
20260506215004 59 121 2.0 8.0 0.04 0.16 0.16 91 1006.3
20260506214517 59 102 2.0 8.0 0.03 0.15 0.15 91 1006.3
20260506214007 59 116 2.0 8.0 0.04 0.15 0.15 90 1006.4
20260506213502 59 71 2.0 7.0 0.03 0.14 0.14 90 1006.4
20260506213014 60 96 3.0 7.0 0.02 0.13 0.13 90 1006.4
20260506212507 60 98 2.0 9.0 0.01 0.12 0.12 90 1006.3
20260506212010 60 71 0.0 9.0 0.02 0.12 0.12 90 1006.4
20260506211512 60 98 3.0 7.0 0.02 0.12 0.12 90 1006.5
20260506211008 60 71 2.0 9.0 0.02 0.12 0.12 90 1006.6
20260506210509 60 71 2.0 9.0 0.03 0.12 0.12 90 1006.6
20260506210012 60 85 2.0 10.0 0.03 0.12 0.12 90 1006.6
20260506205507 60 85 4.0 10.0 0.04 0.12 0.12 89 1006.7
20260506205005 60 127 2.0 6.0 0.04 0.12 0.12 90 1006.7
20260506204523 60 65 1.0 8.0 0.05 0.12 0.12 90 1006.8
20260506204004 60 62 3.0 8.0 0.04 0.11 0.11 89 1006.9
20260506203507 60 98 3.0 8.0 0.04 0.11 0.11 89 1007.0
20260506203033 60 95 3.0 10.0 0.04 0.11 0.11 89 1007.0
20260506202507 60 82 3.0 12.0 0.04 0.11 0.11 89 1007.0
20260506202006 60 85 2.0 12.0 0.04 0.10 0.10 89 1007.0
20260506201520 60 71 4.0 12.0 0.04 0.10 0.10 89 1007.1
20260506201007 60 90 1.0 8.0 0.04 0.10 0.10 89 1007.0
20260506200505 60 346 2.0 7.0 0.03 0.09 0.09 89 1007.0
20260506200015 60 90 2.0 11.0 0.04 0.09 0.09 88 1007.0
20260506195508 61 104 2.0 13.0 0.03 0.08 0.08 86 1007.0
20260506195011 61 80 5.0 13.0 0.03 0.08 0.08 86 1007.1
20260506194514 61 84 4.0 9.0 0.03 0.07 0.07 86 1007.2
20260506194008 61 98 3.0 7.0 0.04 0.07 0.07 87 1007.2
20260506193508 62 116 0.0 10.0 0.04 0.07 0.07 87 1007.1
20260506193009 62 300 4.0 10.0 0.05 0.07 0.07 85 1007.2
20260506192507 62 329 4.0 9.0 0.06 0.07 0.07 85 1007.1
20260506192014 62 12 2.0 8.0 0.05 0.06 0.06 86 1007.2
20260506191524 62 98 3.0 7.0 0.05 0.06 0.06 87 1007.1
20260506191002 62 70 1.0 6.0 0.05 0.06 0.06 86 1007.2
20260506190507 62 123 3.0 9.0 0.06 0.06 0.06 85 1007.1
20260506190024 62 71 4.0 9.0 0.05 0.05 0.05 83 1007.0
20260506185502 63 117 2.0 8.0 0.05 0.05 0.05 84 1007.0
20260506185005 63 78 1.0 8.0 0.05 0.05 0.05 83 1007.1
20260506184522 63 113 3.0 10.0 0.04 0.04 0.04 80 1007.2
20260506184009 64 122 3.0 13.0 0.03 0.03 0.03 79 1007.3
20260506183507 64 77 6.0 13.0 0.03 0.03 0.03 77 1007.5
20260506183020 65 59 4.0 8.0 0.02 0.02 0.02 76 1007.4
20260506182507 65 118 1.0 4.0 0.01 0.01 0.01 76 1007.7
20260506182004 66 86 1.0 7.0 0.01 0.01 0.01 76 1007.6
20260506181515 66 113 2.0 11.0 0.01 0.01 0.01 72 1007.5
20260506181007 67 114 3.0 11.0 0.01 0.01 0.01 70 1007.7
20260506180509 68 113 3.0 14.0 0.00 0.00 0.00 67 1007.7
20260506180014 69 67 4.0 19.0 0.00 0.00 0.00 64 1007.8
20260506175505 69 127 5.0 19.0 0.00 0.00 0.00 60 1007.7
20260506175012 70 81 7.0 12.0 0.00 0.00 0.00 58 1007.6
20260506174524 70 59 3.0 11.0 0.00 0.00 0.00 57 1007.5
20260506174007 71 80 5.0 11.0 0.00 0.00 0.00 58 1007.6
20260506173506 71 96 2.0 13.0 0.00 0.00 0.00 56 1007.5
20260506173031 71 86 2.0 18.0 0.00 0.00 0.00 55 1007.5
20260506172503 72 85 5.0 18.0 0.00 0.00 0.00 54 1007.4
20260506172009 72 79 3.0 18.0 0.00 0.00 0.00 54 1007.4
20260506171527 72 345 8.0 22.0 0.00 0.00 0.00 53 1007.4
20260506171008 72 95 7.0 22.0 0.00 0.00 0.00 52 1007.3
20260506170507 72 94 4.0 16.0 0.00 0.00 0.00 52 1007.3
20260506170023 72 97 6.0 16.0 0.00 0.00 0.00 53 1007.5
20260506165508 73 80 6.0 16.0 0.00 0.00 0.00 51 1007.5
20260506165007 73 107 4.0 14.0 0.00 0.00 0.00 53 1007.6
20260506164520 73 113 7.0 14.0 0.00 0.00 0.00 52 1007.7
20260506164011 72 98 6.0 15.0 0.00 0.00 0.00 53 1007.5
20260506163506 72 33 2.0 15.0 0.00 0.00 0.00 55 1007.8
20260506163025 71 96 5.0 13.0 0.00 0.00 0.00 56 1007.9
20260506162506 70 137 5.0 16.0 0.00 0.00 0.00 56 1008.0
20260506162011 70 55 5.0 16.0 0.00 0.00 0.00 56 1008.1
20260506161515 71 97 1.0 12.0 0.00 0.00 0.00 58 1008.2
20260506161010 71 96 5.0 10.0 0.00 0.00 0.00 57 1008.2
20260506160513 70 101 3.0 11.0 0.00 0.00 0.00 57 1008.3
20260506160027 71 93 4.0 13.0 0.00 0.00 0.00 57 1008.4
20260506155506 70 60 2.0 15.0 0.00 0.00 0.00 57 1008.5
20260506155009 70 117 7.0 15.0 0.00 0.00 0.00 58 1008.6
20260506154527 70 92 4.0 12.0 0.00 0.00 0.00 59 1008.6
20260506154006 70 86 2.0 11.0 0.00 0.00 0.00 59 1008.7
20260506153510 70 87 3.0 11.0 0.00 0.00 0.00 60 1008.8
20260506153024 69 102 4.0 11.0 0.00 0.00 0.00 60 1008.8
20260506152508 69 61 3.0 11.0 0.00 0.00 0.00 61 1008.8
20260506152006 69 35 3.0 11.0 0.00 0.00 0.00 61 1009.0
20260506151526 69 83 2.0 13.0 0.00 0.00 0.00 61 1009.1
20260506151008 69 101 8.0 13.0 0.00 0.00 0.00 61 1009.1
20260506150510 69 59 4.0 13.0 0.00 0.00 0.00 61 1009.2
20260506150020 69 92 6.0 13.0 0.00 0.00 0.00 62 1009.4
20260506145511 69 105 2.0 10.0 0.00 0.00 0.00 64 1009.3
20260506145009 68 123 3.0 14.0 0.00 0.00 0.00 64 1009.2
20260506144518 68 113 0.0 14.0 0.00 0.00 0.00 65 1009.4
20260506144006 68 111 3.0 14.0 0.00 0.00 0.00 65 1009.6
20260506143508 67 74 6.0 14.0 0.00 0.00 0.00 65 1009.6
20260506143027 67 96 4.0 10.0 0.00 0.00 0.00 65 1009.6
20260506142513 67 83 4.0 12.0 0.00 0.00 0.00 66 1009.6
20260506142010 67 117 5.0 12.0 0.00 0.00 0.00 66 1009.4
20260506141531 67 101 5.0 11.0 0.00 0.00 0.00 66 1009.4
20260506141011 67 87 3.0 13.0 0.00 0.00 0.00 66 1009.3
20260506140506 67 266 5.0 13.0 0.00 0.00 0.00 66 1009.2
20260506140028 67 134 2.0 13.0 0.00 0.00 0.00 66 1009.2
20260506135513 67 84 3.0 13.0 0.00 0.00 0.00 67 1009.1
20260506135008 67 68 3.0 10.0 0.00 0.00 0.00 67 1009.3
20260506134524 67 291 2.0 10.0 0.00 0.00 0.00 67 1009.5
20260506134011 67 67 4.0 13.0 0.00 0.00 0.00 67 1009.4
20260506133506 67 55 5.0 13.0 0.00 0.00 0.00 66 1009.5
20260506133022 67 294 3.0 14.0 0.00 0.00 0.00 67 1009.5
20260506132513 67 105 2.0 14.0 0.00 0.00 0.00 67 1009.6
20260506132011 67 87 2.0 8.0 0.00 0.00 0.00 67 1009.7
20260506131530 67 101 4.0 8.0 0.00 0.00 0.00 67 1009.8
20260506131011 66 341 2.0 8.0 0.00 0.00 0.00 69 1009.9
20260506130507 65 352 3.0 9.0 0.00 0.00 0.00 72 1010.0
20260506130016 64 112 2.0 9.0 0.00 0.00 0.00 72 1010.1
20260506125510 64 116 4.0 9.0 0.00 0.00 0.00 72 1010.1
20260506125007 64 59 2.0 8.0 0.00 0.00 0.00 72 1010.0
20260506124516 64 83 1.0 14.0 0.00 0.00 0.00 73 1009.9
20260506124007 64 65 3.0 14.0 0.00 0.00 0.00 72 1010.0
20260506123504 64 91 3.0 10.0 0.00 0.00 0.00 72 1010.0
20260506123012 64 65 4.0 9.0 0.00 0.00 0.00 71 1010.0
20260506122507 64 314 4.0 13.0 0.00 0.00 0.00 72 1009.8
20260506122003 63 122 4.0 13.0 0.00 0.00 0.00 73 1009.7
20260506121510 62 92 2.0 11.0 0.00 0.00 0.00 74 1009.9
20260506121005 62 85 6.0 11.0 0.00 0.00 0.00 74 1010.0
20260506120507 62 36 2.0 11.0 0.00 0.00 0.00 75 1010.0
20260506120014 62 94 4.0 14.0 0.00 0.00 0.00 74 1010.0
20260506115511 62 79 5.0 14.0 0.00 0.00 0.00 74 1009.9
20260506115007 63 335 4.0 9.0 0.00 0.00 0.00 73 1009.8
20260506114504 62 100 2.0 7.0 0.00 0.00 0.00 74 1009.9
20260506114005 62 90 3.0 13.0 0.00 0.00 0.00 76 1010.0
20260506113506 61 97 4.0 13.0 0.00 0.00 0.00 76 1010.1
20260506113022 61 333 3.0 9.0 0.00 0.00 0.00 77 1010.0
20260506112503 61 57 4.0 9.0 0.00 0.00 0.00 77 1010.3
20260506112003 61 105 3.0 8.0 0.00 0.00 0.00 76 1010.1
20260506111521 60 99 2.0 10.0 0.00 0.00 0.00 78 1010.3
20260506111006 60 85 4.0 10.0 0.00 0.00 0.00 77 1010.4
20260506110505 60 80 2.0 11.0 0.00 0.00 0.00 77 1010.3
20260506110015 60 41 6.0 11.0 0.00 0.00 0.00 77 1010.2
20260506105507 60 103 2.0 9.0 0.00 0.00 0.00 78 1010.0
20260506105005 60 76 2.0 11.0 0.00 0.00 0.00 78 1010.0
20260506104510 59 90 3.0 11.0 0.00 0.00 0.00 78 1010.1
20260506104006 59 85 1.0 8.0 0.00 0.00 0.00 78 1010.0
20260506103509 59 71 1.0 9.0 0.00 0.00 0.00 78 1010.0
20260506103009 59 90 2.0 9.0 0.00 0.00 0.00 78 1010.0
20260506102507 59 95 4.0 8.0 0.00 0.00 0.00 79 1009.9
20260506102008 59 44 3.0 8.0 0.00 0.00 0.00 79 1009.9
20260506101506 59 80 2.0 10.0 0.00 0.00 0.00 79 1009.9
20260506101003 59 67 3.0 10.0 0.00 0.00 0.00 78 1009.9
20260506100505 59 103 1.0 11.0 0.00 0.00 0.00 78 1009.9
20260506100023 59 59 4.0 11.0 0.00 0.00 0.00 78 1009.9
20260506095506 59 101 4.0 10.0 0.00 0.00 0.00 78 1009.9
20260506095004 59 88 3.0 8.0 0.00 0.00 0.00 78 1009.8
20260506094524 59 71 1.0 7.0 0.00 0.00 0.00 78 1009.9
20260506094003 59 82 2.0 6.0 0.00 0.00 0.00 78 1009.9
20260506093506 59 99 1.0 6.0 0.00 0.00 0.00 77 1009.8
20260506093023 59 118 1.0 9.0 0.00 0.00 0.00 77 1009.8
20260506092506 59 111 2.0 9.0 0.00 0.00 0.00 77 1009.7
20260506092005 59 107 0.0 5.0 0.00 0.00 0.00 77 1009.8
20260506091516 59 84 3.0 8.0 0.00 0.00 0.00 77 1009.9
20260506091007 59 88 1.0 8.0 0.00 0.00 0.00 76 1009.8
20260506090506 59 69 2.0 6.0 0.00 0.00 0.00 76 1009.8
20260506090011 59 81 2.0 6.0 0.00 0.00 0.00 76 1009.8
20260506085506 59 110 2.0 8.0 0.00 0.00 0.00 76 1009.8
20260506085007 59 104 1.0 8.0 0.00 0.00 0.00 76 1009.9
20260506084507 60 98 2.0 8.0 0.00 0.00 0.00 76 1009.8
20260506084004 60 116 4.0 8.0 0.00 0.00 0.00 75 1009.9
20260506083505 60 102 2.0 7.0 0.00 0.00 0.00 75 1010.0
20260506083028 60 84 1.0 7.0 0.00 0.00 0.00 75 1009.9
20260506082503 60 80 2.0 7.0 0.00 0.00 0.00 75 1009.9
20260506082007 60 109 2.0 6.0 0.00 0.00 0.00 74 1009.9
20260506081532 60 69 2.0 8.0 0.00 0.00 0.00 74 1009.9
20260506081004 60 101 3.0 8.0 0.00 0.00 0.00 74 1010.0
20260506080506 60 98 1.0 4.0 0.00 0.00 0.00 74 1009.9
20260506073504 61 103 1.0 4.0 0.00 0.00 0.00 72 1009.9
20260506073030 61 69 2.0 4.0 0.00 0.00 0.00 71 1009.9
20260506072507 61 78 1.0 8.0 0.00 0.00 0.00 71 1009.9
20260506072013 61 101 1.0 8.0 0.00 0.00 0.00 71 1009.8
20260506071509 61 36 2.0 9.0 0.00 0.00 0.00 70 1009.8
20260506071010 61 99 1.0 9.0 0.00 0.00 0.00 70 1009.7
20260506070506 62 84 2.0 9.0 0.00 0.00 0.00 70 1009.7
20260506062509 63 51 2.0 9.0 0.00 0.00 0.00 66 1009.6
20260506062006 63 92 2.0 9.0 0.00 0.00 0.00 66 1009.5
20260506061520 63 100 3.0 11.0 0.00 0.00 0.00 65 1009.5
20260506061006 63 82 2.0 11.0 0.00 0.00 0.00 65 1009.5
20260506060502 63 103 3.0 12.0 0.00 0.00 0.00 65 1009.4
20260506051005 63 108 1.0 6.0 0.00 0.00 0.00 62 1009.8
20260506050506 63 76 3.0 8.0 0.00 0.00 0.00 62 1009.8
20260506045007 63 83 2.0 7.0 0.00 0.00 0.00 62 1010.0
20260506044551 63 51 3.0 6.0 0.00 0.00 0.00 62 1009.9
20260506044009 63 107 2.0 5.0 0.00 0.00 0.00 62 1009.9
20260506043506 63 90 1.0 10.0 0.00 0.00 0.00 62 1009.9
20260506043022 63 80 4.0 10.0 0.00 0.00 0.00 62 1009.9
20260506042509 63 132 2.0 10.0 0.00 0.00 0.00 62 1010.0
20260506042012 63 69 3.0 10.0 0.00 0.00 0.00 62 1010.0
20260506041519 63 86 1.0 6.0 0.00 0.00 0.00 62 1009.9
20260506041012 63 94 1.0 6.0 0.00 0.00 0.00 62 1010.0
20260506040510 63 89 2.0 5.0 0.00 0.00 0.00 62 1010.0
20260506040013 62 72 1.0 4.0 0.00 0.00 0.00 62 1010.0
20260506035506 63 97 0.0 4.0 0.00 0.00 0.00 62 1010.1
20260506035007 63 102 0.0 3.0 0.00 0.00 0.00 62 1010.0
20260506034548 63 82 1.0 6.0 0.00 0.00 0.00 61 1010.1
20260506034008 63 82 2.0 6.0 0.00 0.00 0.00 61 1010.0
20260506033506 63 69 1.0 4.0 0.00 0.00 0.00 61 1010.1
20260506033025 63 97 1.0 5.0 0.00 0.00 0.00 60 1010.1
20260506032507 63 94 1.0 8.0 0.00 0.00 0.00 60 1010.0
20260506032008 63 74 3.0 7.0 0.00 0.00 0.00 60 1010.0
20260506031526 63 99 1.0 8.0 0.00 0.00 0.00 60 1010.1
20260506031008 63 101 4.0 8.0 0.00 0.00 0.00 60 1010.1
20260506030507 63 94 1.0 6.0 0.00 0.00 0.00 60 1010.1
20260506030024 64 103 1.0 6.0 0.00 0.00 0.00 59 1010.1
20260506025512 64 115 2.0 8.0 0.00 0.00 0.00 59 1010.1
20260506025004 64 97 3.0 8.0 0.00 0.00 0.00 59 1010.1
20260506024520 64 77 1.0 7.0 0.00 0.00 0.00 59 1010.0
20260506024011 64 65 2.0 6.0 0.00 0.00 0.00 58 1010.1
20260506023513 64 76 2.0 8.0 0.00 0.00 0.00 58 1010.0
20260506023018 65 95 1.0 9.0 0.00 0.00 0.00 58 1010.0
20260506022510 65 101 4.0 9.0 0.00 0.00 0.00 57 1010.0
20260506022006 65 76 3.0 6.0 0.00 0.00 0.00 57 1010.1
20260506021517 65 96 3.0 7.0 0.00 0.00 0.00 57 1010.0
20260506021009 65 98 3.0 7.0 0.00 0.00 0.00 57 1010.0
20260506020509 66 93 3.0 7.0 0.00 0.00 0.00 56 1010.1
20260506020026 66 106 2.0 4.0 0.00 0.00 0.00 56 1010.1
20260506015507 66 100 1.0 6.0 0.00 0.00 0.00 56 1009.9
20260506015011 66 102 1.0 7.0 0.00 0.00 0.00 55 1010.0
20260506014531 67 100 0.0 7.0 0.00 0.00 0.00 55 1010.0
20260506014011 67 92 0.0 2.0 0.00 0.00 0.00 54 1010.0
20260506013509 67 91 1.0 5.0 0.00 0.00 0.00 53 1009.9
20260506013023 67 107 0.0 13.0 0.00 0.00 0.00 53 1009.7
20260506012509 68 101 5.0 13.0 0.00 0.00 0.00 53 1009.6
20260506012007 68 69 3.0 9.0 0.00 0.00 0.00 53 1009.4
20260506011523 68 88 3.0 9.0 0.00 0.00 0.00 52 1009.2
20260506011011 68 96 1.0 10.0 0.00 0.00 0.00 52 1009.2
20260506010507 68 99 2.0 10.0 0.00 0.00 0.00 51 1009.2
20260506010022 69 101 4.0 9.0 0.00 0.00 0.00 51 1009.1
20260506005509 69 72 4.0 9.0 0.00 0.00 0.00 51 1008.9
20260506005010 69 88 2.0 8.0 0.00 0.00 0.00 50 1008.9
20260506004531 69 96 1.0 8.0 0.00 0.00 0.00 50 1008.9
20260506004008 69 104 2.0 9.0 0.00 0.00 0.00 49 1008.9
20260506003511 70 54 4.0 12.0 0.00 0.00 0.00 49 1008.7
20260506003038 70 86 4.0 12.0 0.00 0.00 0.00 48 1008.6
20260506002511 70 38 3.0 8.0 0.00 0.00 0.00 48 1008.5
20260506002012 70 11 3.0 8.0 0.00 0.00 0.00 48 1008.4
20260506001527 71 84 3.0 11.0 0.00 0.00 0.00 47 1008.2
20260506001007 71 44 2.0 11.0 0.00 0.00 0.00 46 1008.2